Theta_e
288 289 288 288 288 288 288 288 288 288 287 287 287 287 287 286 287 286 286 286 286 287 287 287 287 289 288 289 290 290 289 288 283 287 290 291 291 291 292 294 293 292 291
288 288 287 287 287 287 287 287 288 287 288 287 287 286 286 286 286 285 285 285 284 284 285 285 285 286 287 288 288 288 288 288 285 283 286 287 288 290 290 290 290 290 289
287 286 286 286 286 286 287 287 287 287 287 287 286 286 286 286 285 285 285 284 284 284 284 284 284 285 285 286 286 287 287 286 285 283 283 286 286 287 287 288 288 288 289
286 285 285 285 286 286 286 286 286 286 285 285 285 285 285 285 285 285 284 284 284 284 284 284 284 284 284 284 283 283 284 283 283 282 282 283 284 286 287 285 284 288 288
285 283 284 285 286 285 284 285 285 285 285 285 284 284 284 284 284 284 284 284 284 284 284 284 284 284 284 284 283 282 282 282 282 281 281 282 282 283 283 285 283 284 285
281 281 283 284 284 283 283 283 284 283 283 283 283 283 283 282 283 284 284 284 284 284 283 283 283 283 283 284 284 284 285 283 282 281 281 281 282 283 284 284 283 281 279
279 279 280 280 280 280 280 280 281 281 282 282 282 282 282 282 283 283 283 284 284 284 283 283 283 283 283 283 283 284 284 285 285 284 282 283 283 285 285 284 283 282 281
277 278 279 279 278 279 279 279 280 281 281 281 281 281 281 281 282 283 283 283 283 283 283 282 282 281 282 281 281 282 283 283 284 284 284 284 284 285 285 284 283 283 283
276 278 279 279 278 278 278 278 280 281 281 281 281 280 280 280 281 282 282 282 282 282 282 282 281 280 281 282 281 281 281 283 285 287 287 287 287 288 287 285 282 281 279
279 279 280 280 278 278 279 279 281 281 280 281 280 280 279 279 280 281 281 281 280 280 281 281 280 280 281 282 281 281 280 282 284 285 285 285 286 285 285 283 282 280 279
282 281 281 280 279 279 279 280 280 279 279 278 278 279 279 278 278 280 281 280 280 279 279 279 281 281 282 282 283 283 283 284 284 284 285 285 284 283 282 282 283 281 279
282 280 280 280 280 280 279 280 279 278 277 277 277 277 278 279 278 279 280 281 281 279 279 280 281 281 281 282 282 284 284 285 284 284 284 283 283 282 282 282 282 281 282
281 280 279 279 279 279 279 278 278 278 277 277 277 277 277 279 279 280 280 281 281 280 280 280 280 280 281 281 281 282 282 283 283 282 283 283 284 283 281 280 280 279 279
278 278 279 277 278 278 277 278 277 277 276 276 276 276 277 277 278 279 279 279 279 279 279 279 279 280 280 280 280 281 281 282 282 282 283 283 283 280 279 281 278 278 277
276 276 277 277 277 277 276 276 276 277 277 276 277 277 276 277 279 280 280 280 279 279 277 279 278 277 277 278 279 279 281 281 280 283 283 282 280 280 280 280 278 277 275
275 276 277 275 276 276 275 275 278 278 279 279 280 280 280 280 281 281 281 281 281 281 278 277 276 277 276 277 277 278 279 279 281 282 282 281 279 279 279 279 277 275 275
273 274 274 274 274 274 274 274 273 276 278 278 278 279 279 279 279 279 279 279 279 279 276 275 275 275 275 276 276 277 277 280 282 281 280 280 279 279 277 277 277 275 274
272 272 273 273 273 273 273 273 273 272 272 273 276 276 276 277 277 278 278 277 274 274 273 272 272 273 274 274 276 277 278 280 281 280 279 279 278 278 277 276 276 275 275
271 272 272 272 272 271 271 271 272 272 271 272 273 274 274 274 275 275 275 273 271 270 270 270 270 271 272 274 275 277 279 280 280 279 279 278 277 277 276 277 276 272 271
271 270 269 270 270 270 271 270 270 270 270 270 270 271 272 271 270 270 270 269 269 268 268 268 269 271 272 274 275 278 280 279 278 278 278 278 277 277 276 276 274 272 272
270 270 268 269 269 269 269 269 269 269 268 269 269 270 272 270 270 270 270 269 268 268 268 268 269 269 271 274 278 278 279 279 278 278 277 277 276 276 277 276 274 273 272
269 269 268 268 268 267 268 268 268 267 267 267 268 268 270 268 268 267 267 267 267 267 267 267 268 269 270 273 276 278 278 277 277 276 276 276 276 276 275 273 272 272 271
269 268 267 267 266 266 266 266 266 266 266 266 266 266 266 266 266 265 265 266 265 265 266 267 267 268 272 274 277 279 278 277 277 277 277 276 276 274 273 271 271 270 270
266 265 265 265 265 265 265 265 265 265 264 264 265 265 264 265 265 264 264 265 264 265 266 267 267 268 269 272 276 279 278 278 278 277 277 276 274 272 272 271 270 270 269
266 264 264 264 264 264 264 264 264 264 264 264 264 264 264 264 264 264 264 264 264 265 266 267 267 269 271 272 275 276 276 275 276 276 276 275 272 271 270 270 269 268 266
265 264 263 264 263 263 263 263 263 263 263 263 263 263 263 263 264 264 264 265 265 265 266 267 269 270 271 274 276 275 273 274 273 274 275 273 270 269 269 268 267 267 266
Wind_Speed
10 9 8 7 7 6 6 6 6 5 5 5 5 5 5 5 5 5 6 7 7 8 8 8 10 10 8 8 8 9 10 9 14 10 11 12 14 16 14 12 11 12 12
11 10 10 8 8 8 8 7 6 6 6 6 6 6 6 6 6 6 7 7 8 8 9 9 10 7 10 10 9 11 11 11 11 16 11 10 13 14 15 16 12 11 13
11 10 10 10 9 9 8 7 7 7 7 6 7 7 7 7 7 7 8 8 8 9 9 10 11 10 11 9 10 10 10 9 11 11 12 9 9 11 11 12 11 12 11
11 11 11 11 10 9 8 8 8 7 7 7 7 7 8 8 9 9 9 10 9 9 10 11 11 11 12 11 9 11 10 10 11 11 11 9 8 8 10 8 10 8 10
9 8 10 10 10 9 9 9 8 7 7 7 8 8 9 8 8 9 9 10 11 12 11 12 12 12 14 15 9 11 12 10 9 11 12 10 10 8 10 7 8 8 10
10 12 10 8 7 8 9 8 8 8 8 8 9 9 9 7 13 15 13 11 12 11 11 13 13 13 15 20 20 21 17 11 13 11 11 12 13 10 8 8 8 7 8
10 10 8 8 8 8 7 8 8 10 8 8 9 9 9 10 15 16 16 10 10 11 12 11 11 9 12 12 17 21 19 22 23 15 15 13 13 9 8 10 9 8 10
10 10 10 8 8 7 7 9 9 8 8 8 8 9 9 9 16 17 17 10 10 12 12 12 12 14 13 12 13 13 13 13 16 12 13 13 13 11 10 10 11 11 9
11 12 10 9 9 8 8 9 8 7 8 8 7 9 9 10 17 17 15 10 10 12 10 11 12 13 19 21 14 14 14 14 15 23 24 24 23 21 16 7 8 7 8
13 12 11 10 10 9 9 7 7 8 8 7 8 9 11 11 17 18 15 8 11 10 10 11 17 15 21 23 14 13 13 14 12 11 8 14 16 11 13 9 8 8 9
13 8 11 10 9 8 7 7 6 7 8 8 9 8 10 11 12 18 18 10 9 9 9 9 9 19 20 22 24 13 14 14 16 13 10 8 7 7 6 6 8 8 9
14 11 12 11 8 6 8 7 7 7 8 8 9 9 8 9 13 16 17 17 16 11 10 9 10 20 22 23 20 21 23 21 11 10 9 7 6 6 6 6 7 9 9
15 14 11 10 7 7 7 7 6 7 7 7 7 9 9 8 8 16 18 19 20 13 9 13 21 22 26 21 22 23 17 10 10 10 10 8 6 5 4 4 7 10 11
16 14 10 9 8 7 6 6 7 8 7 7 8 9 9 9 8 8 8 9 13 13 15 12 15 19 22 20 14 14 10 10 9 10 8 6 3 4 5 5 6 7 7
14 11 9 8 7 7 7 7 8 8 8 7 7 8 9 10 8 13 13 9 9 12 13 8 8 9 10 9 9 10 9 9 10 8 7 7 6 6 6 6 6 6 6
13 10 8 7 7 6 6 7 16 18 17 19 20 17 10 19 24 23 23 23 24 24 12 11 10 10 10 10 10 10 10 11 9 8 7 7 7 7 7 6 6 6 6
12 12 9 8 7 7 6 7 9 7 11 15 18 20 21 21 22 22 23 23 24 19 10 10 11 10 11 11 10 10 11 10 8 8 8 8 7 6 6 7 6 5 6
11 13 9 8 7 7 7 8 7 9 9 9 11 14 17 20 21 22 22 20 11 10 10 10 10 10 11 11 11 11 10 9 8 8 8 7 6 6 7 7 5 6 5
11 9 9 8 7 7 7 8 8 9 9 9 9 11 10 17 19 20 20 10 10 9 9 10 10 11 11 11 11 11 11 9 8 7 7 6 6 6 8 6 4 4 4
10 11 9 8 8 8 7 8 9 9 9 9 8 9 8 9 9 9 9 9 9 9 9 10 10 11 11 11 11 10 9 8 8 7 7 6 6 7 7 5 5 5 5
9 9 9 8 9 9 8 9 9 9 9 9 9 9 18 12 10 9 8 8 8 8 9 10 10 11 10 11 9 8 8 8 7 7 6 6 7 7 5 5 5 4 3
9 9 9 9 9 9 9 9 9 9 10 10 10 10 20 10 9 10 10 9 9 9 9 10 10 9 10 10 10 9 8 8 7 7 7 6 7 6 5 5 5 4 4
10 10 10 9 9 10 9 9 9 9 10 10 10 10 9 9 9 9 9 9 9 9 9 9 10 10 10 9 11 9 8 8 8 7 7 7 7 6 6 6 6 5 4
10 11 11 10 9 9 10 10 9 11 11 10 10 10 10 9 10 11 10 10 9 10 9 9 9 13 11 11 11 7 7 7 6 7 9 8 7 8 6 6 6 6 5
10 10 10 10 9 9 10 10 10 10 10 10 10 10 10 10 10 10 10 9 9 9 10 10 10 13 16 17 17 12 9 9 8 8 7 8 9 10 8 7 7 6 5
11 10 9 9 9 9 9 9 10 10 10 9 10 10 10 10 10 10 9 9 9 9 11 9 11 16 16 15 12 10 9 11 9 10 8 8 9 7 7 8 10 6 6
Wind_Direction
237 234 232 228 225 224 229 227 227 230 233 241 249 260 269 277 278 279 284 289 283 286 281 274 275 277 270 269 265 262 262 261 266 272 276 284 283 285 291 290 292 292 291
239 236 236 235 230 232 232 232 231 240 239 248 255 265 270 273 280 279 282 283 282 281 284 282 277 280 274 272 269 267 263 259 268 277 276 281 281 290 291 293 293 296 294
238 234 236 236 234 237 238 235 233 242 248 245 249 258 265 268 272 270 269 276 277 278 279 279 281 283 279 276 273 272 270 272 269 273 279 277 278 283 286 286 290 293 288
235 235 237 234 235 238 239 238 240 242 253 255 256 266 272 277 276 279 279 282 281 280 279 278 279 276 274 278 279 281 281 274 271 271 275 275 272 275 279 286 291 290 301
239 233 235 234 235 234 235 236 241 246 253 261 268 267 269 269 272 276 280 278 277 279 278 277 275 274 272 268 271 271 274 270 267 270 271 272 273 274 280 290 280 289 295
230 234 233 231 225 227 238 240 244 251 253 254 255 261 267 267 269 271 274 278 277 273 272 274 278 275 265 266 266 268 264 268 262 265 270 270 275 275 274 275 277 285 302
243 243 240 237 237 238 239 243 242 249 255 248 256 256 259 263 272 279 280 275 270 268 266 269 276 270 269 267 270 270 267 266 266 270 274 274 281 282 284 275 267 264 273
252 245 246 241 242 243 238 237 243 245 248 253 258 260 264 267 275 282 284 277 269 264 265 268 271 276 270 272 273 269 265 263 256 254 257 265 270 275 273 272 273 279 276
261 250 243 227 235 233 237 239 242 247 248 249 252 262 259 263 272 280 285 279 269 266 265 266 267 272 276 281 275 268 271 269 267 257 257 263 269 268 273 285 250 254 278
252 250 253 227 221 225 231 237 247 244 256 260 262 254 253 261 271 280 281 275 272 274 273 267 267 267 274 277 269 267 270 274 275 267 244 257 262 257 262 261 274 272 279
280 253 259 235 224 218 230 231 238 244 253 256 264 265 261 256 265 273 275 268 268 275 273 272 268 274 277 284 281 268 268 282 279 277 268 251 224 241 237 237 245 252 262
286 261 260 247 228 217 222 226 229 241 252 257 264 271 265 258 254 260 267 268 271 272 272 274 276 281 283 282 281 274 275 281 270 265 267 240 247 249 237 231 253 255 255
290 272 261 243 233 227 233 242 247 241 245 261 265 273 276 272 270 266 269 275 276 274 269 271 274 277 278 282 283 283 282 273 268 267 264 254 246 242 224 241 258 262 261
295 287 276 245 237 235 233 246 251 244 244 252 257 264 272 274 270 271 270 274 274 274 273 265 261 265 269 273 279 277 263 266 269 266 255 264 233 215 237 251 268 272 275
298 293 283 267 255 248 240 241 241 244 239 251 257 267 273 274 273 279 279 268 262 258 261 259 257 251 258 267 270 266 263 263 260 259 247 241 238 247 254 259 255 262 256
307 307 306 291 275 255 255 266 249 256 260 258 262 263 270 272 286 291 293 291 289 289 284 277 273 271 269 271 269 267 260 263 250 252 248 234 238 245 257 257 247 246 261
305 307 300 294 286 281 273 272 291 287 276 273 273 273 274 279 287 293 294 291 288 290 272 273 271 269 268 266 265 264 263 260 242 240 238 241 238 242 241 251 239 238 242
304 300 296 298 293 291 287 283 284 289 296 291 278 273 277 281 288 292 293 296 288 273 270 272 272 273 272 270 268 262 257 252 243 240 234 230 227 236 243 242 229 228 232
311 308 309 300 294 288 285 282 280 283 284 283 289 280 279 282 289 288 287 283 283 278 273 270 270 269 266 264 262 261 252 244 242 234 231 221 219 228 234 231 204 210 215
302 296 295 299 299 296 291 288 286 282 280 277 280 285 294 293 281 271 251 256 260 263 266 265 264 265 267 260 259 264 250 236 232 231 228 222 219 221 227 201 195 195 209
296 293 289 291 290 289 286 283 282 280 276 276 278 278 282 284 287 283 277 263 257 261 267 270 268 262 260 279 251 264 250 242 230 223 216 217 213 213 210 179 183 188 169
290 287 292 289 290 286 280 280 279 277 276 279 282 280 286 285 280 276 274 274 272 270 268 267 266 267 264 267 275 260 244 238 225 215 212 207 199 198 165 167 169 171 164
297 294 293 290 285 285 281 277 276 275 277 277 279 281 280 275 273 272 271 271 269 268 265 261 260 264 260 257 256 249 244 233 217 202 198 193 189 170 165 166 164 161 168
291 295 293 290 287 285 282 282 279 273 272 275 277 277 277 275 273 273 273 271 270 268 264 262 259 259 265 263 269 246 238 231 208 196 185 174 169 154 158 155 159 152 137
294 289 288 287 285 284 285 280 279 279 278 276 276 275 276 274 272 270 268 267 267 269 271 268 259 260 262 262 258 239 229 209 193 174 165 160 153 157 154 150 144 138 127
291 285 285 285 282 280 278 277 278 280 278 278 278 277 277 276 275 274 272 269 271 273 277 273 271 269 270 274 254 225 197 188 166 161 150 144 143 146 144 139 138 134 134